EAG5520 SBBR-SBGR

Flight info

Callsign EAG5520
Flight time N/A
Altitude 32000
Route ENRUR UZ38 VUNOX
Aircraft B38M/M-SDE1FGHILORVWXY/HB1

Departure

Time 2026-05-04 20:57
Airport Presidente Juscelino Kubitschek International Airport (SBBR)

Arrival

Time N/A
Airport São Paulo/Guarulhos–Governor André Franco Montoro International Airport (SBGR)
Time Latitude Longitude Altitude Speed Heading
2026-05-04 20:26 -15.87276 -47.91796 3455 ft 0 kts
2026-05-04 20:27 -15.87286 -47.91798 3454 ft 2 kts 12°
2026-05-04 20:28 -15.87302 -47.91802 3454 ft 2 kts 18°
2026-05-04 20:28 -15.87316 -47.91809 3454 ft 2 kts 41°
2026-05-04 20:28 -15.87324 -47.91824 3455 ft 2 kts 83°
2026-05-04 20:28 -15.87325 -47.91830 3455 ft 0 kts 85°
2026-05-04 20:31 -15.87325 -47.91829 3455 ft 0 kts 85°
2026-05-04 20:31 -15.87325 -47.91825 3455 ft 1 kts 85°
2026-05-04 20:32 -15.87324 -47.91815 3454 ft 2 kts 84°
2026-05-04 20:32 -15.87322 -47.91788 3454 ft 6 kts 86°
2026-05-04 20:32 -15.87318 -47.91731 3452 ft 10 kts 86°
2026-05-04 20:32 -15.87356 -47.91666 3450 ft 14 kts 172°
2026-05-04 20:33 -15.87473 -47.91658 3448 ft 19 kts 177°
2026-05-04 20:33 -15.87615 -47.91649 3446 ft 20 kts 176°
2026-05-04 20:33 -15.87741 -47.91678 3447 ft 14 kts 240°
2026-05-04 20:33 -15.87747 -47.91761 3452 ft 11 kts 269°
2026-05-04 20:34 -15.87751 -47.91833 3450 ft 9 kts 272°
2026-05-04 20:34 -15.87752 -47.91890 3451 ft 7 kts 266°
2026-05-04 20:34 -15.87755 -47.91938 3452 ft 6 kts 266°
2026-05-04 20:34 -15.87757 -47.91971 3453 ft 5 kts 266°
2026-05-04 20:47 -15.87759 -47.92001 3454 ft 5 kts 266°
2026-05-04 20:48 -15.87761 -47.92032 3455 ft 4 kts 266°
2026-05-04 20:48 -15.87762 -47.92062 3459 ft 4 kts 266°
2026-05-04 20:48 -15.87764 -47.92093 3458 ft 7 kts 266°
2026-05-04 20:48 -15.87770 -47.92182 3459 ft 14 kts 266°
2026-05-04 20:49 -15.87776 -47.92279 3462 ft 13 kts 266°
2026-05-04 20:49 -15.87782 -47.92367 3464 ft 12 kts 266°
2026-05-04 20:49 -15.87787 -47.92446 3466 ft 10 kts 266°
2026-05-04 20:49 -15.87792 -47.92518 3468 ft 9 kts 266°
2026-05-04 20:50 -15.87796 -47.92582 3469 ft 8 kts 266°
2026-05-04 20:50 -15.87799 -47.92638 3471 ft 7 kts 266°
2026-05-04 20:50 -15.87802 -47.92687 3472 ft 6 kts 266°
2026-05-04 20:50 -15.87805 -47.92729 3472 ft 5 kts 266°
2026-05-04 20:51 -15.87807 -47.92764 3474 ft 4 kts 266°
2026-05-04 20:51 -15.87812 -47.92840 3476 ft 15 kts 266°
2026-05-04 20:51 -15.87819 -47.92947 3475 ft 14 kts 266°
2026-05-04 20:51 -15.87823 -47.93013 3480 ft 14 kts 266°
2026-05-04 20:52 -15.87830 -47.93121 3483 ft 17 kts 267°
2026-05-04 20:52 -15.87838 -47.93259 3487 ft 22 kts 266°
2026-05-04 20:52 -15.87850 -47.93433 3500 ft 26 kts 266°
2026-05-04 20:52 -15.87860 -47.93578 3495 ft 20 kts 265°
2026-05-04 20:53 -15.87867 -47.93691 3499 ft 15 kts 268°
2026-05-04 20:53 -15.87872 -47.93782 3506 ft 12 kts 266°
2026-05-04 20:53 -15.87877 -47.93867 3509 ft 12 kts 266°
2026-05-04 20:53 -15.87881 -47.93910 3505 ft 0 kts 265°
2026-05-04 20:54 -15.87881 -47.93916 3505 ft 1 kts 265°
2026-05-04 20:54 -15.87882 -47.93930 3505 ft 2 kts 265°
2026-05-04 20:55 -15.87884 -47.93951 3506 ft 4 kts 263°
2026-05-04 20:55 -15.87895 -47.93977 3509 ft 4 kts 231°
2026-05-04 20:55 -15.87923 -47.93994 3513 ft 5 kts 197°
2026-05-04 20:55 -15.87963 -47.93997 3515 ft 6 kts 177°
2026-05-04 20:56 -15.88011 -47.93994 3514 ft 7 kts 170°
2026-05-04 20:56 -15.88057 -47.93961 3513 ft 10 kts 111°
2026-05-04 20:56 -15.88061 -47.93908 3510 ft 0 kts 87°
2026-05-04 20:56 -15.88059 -47.93873 3511 ft 27 kts 86°
2026-05-04 20:57 -15.88031 -47.93432 3492 ft 95 kts 86°
2026-05-04 20:57 -15.87974 -47.92539 3470 ft 150 kts 86°
2026-05-04 20:57 -15.87905 -47.91310 3535 ft 186 kts 92°
2026-05-04 20:57 -15.87953 -47.90002 4358 ft 171 kts 95°
2026-05-04 20:58 -15.88241 -47.88784 4849 ft 182 kts 120°
2026-05-04 20:58 -15.89172 -47.87909 5464 ft 190 kts 152°
2026-05-04 20:58 -15.90536 -47.87572 5807 ft 215 kts 168°
2026-05-04 20:58 -15.92080 -47.87279 6233 ft 237 kts 167°
2026-05-04 20:59 -15.93773 -47.86945 6662 ft 257 kts 167°
2026-05-04 20:59 -15.95540 -47.86600 7327 ft 257 kts 167°
2026-05-04 20:59 -15.97311 -47.86262 8117 ft 262 kts 168°
2026-05-04 20:59 -15.99129 -47.85914 8683 ft 268 kts 169°
2026-05-04 21:00 -16.00964 -47.85564 8840 ft 269 kts 169°
2026-05-04 21:00 -16.02805 -47.85213 8892 ft 269 kts 169°
2026-05-04 21:00 -16.04646 -47.84862 8897 ft 269 kts 169°
2026-05-04 21:00 -16.06493 -47.84505 8969 ft 273 kts 166°
2026-05-04 21:01 -16.08281 -47.83821 9681 ft 280 kts 155°
2026-05-04 21:01 -16.10112 -47.82960 10157 ft 297 kts 156°
2026-05-04 21:01 -16.12057 -47.82047 10531 ft 317 kts 156°
2026-05-04 21:01 -16.14128 -47.81078 10855 ft 337 kts 156°
2026-05-04 21:02 -16.16328 -47.80048 11166 ft 355 kts 155°
2026-05-04 21:02 -16.18590 -47.78990 11585 ft 367 kts 155°
2026-05-04 21:02 -16.20932 -47.77895 12293 ft 369 kts 155°
2026-05-04 21:02 -16.23281 -47.76795 12949 ft 373 kts 155°
2026-05-04 21:03 -16.25663 -47.75680 13633 ft 375 kts 155°
2026-05-04 21:03 -16.28056 -47.74560 14242 ft 379 kts 155°
2026-05-04 21:03 -16.30461 -47.73434 14829 ft 381 kts 155°
2026-05-04 21:03 -16.32894 -47.72295 15409 ft 384 kts 156°
2026-05-04 21:04 -16.35338 -47.71150 15971 ft 387 kts 156°
2026-05-04 21:04 -16.37767 -47.70011 16516 ft 389 kts 156°
2026-05-04 21:04 -16.40249 -47.68847 17064 ft 392 kts 156°
2026-05-04 21:04 -16.42744 -47.67677 17594 ft 395 kts 156°
2026-05-04 21:05 -16.45264 -47.66495 18098 ft 398 kts 156°
2026-05-04 21:05 -16.47801 -47.65304 18576 ft 401 kts 156°
2026-05-04 21:05 -16.50351 -47.64107 19009 ft 403 kts 156°
2026-05-04 21:05 -16.52920 -47.62900 19451 ft 406 kts 157°
2026-05-04 21:06 -16.55503 -47.61687 19876 ft 408 kts 157°
2026-05-04 21:06 -16.58096 -47.60469 20296 ft 410 kts 157°
2026-05-04 21:06 -16.60707 -47.59242 20717 ft 413 kts 157°